Flag for U.S.A. Weather past 2 weeks in Worcester, Massachusetts, U.S.A.

Now
70 °F

Clear.


Feels Like: 69 °F
Forecast: 58 / 73 °F
Wind: 6 mph from North

Location: Worcester Regional Airport

Current Time: Sep 4, 2015 at 3:58:01 AM

Latest Report: Sep 4, 2015 at 2:54 AM


Visibility: 9 mi

Pressure: 29.97 "Hg

Humidity: 84%

Dew point: 65 °F

Location of WorcesterLocation

Historic Weather in Worcester — Graph

°F

Worcester temperature yesterday

Maximum temperature yesterday: 85 °F (at 2:54 PM)
Minimum temperature yesterday: 67 °F (at 4:54 AM)
Average temperature yesterday: 77 °F

Past Weeks' High & Low Weather Summary

 TemperatureHumidityPressure
High85 °F (Sep 3, 2:54 PM)100% (Aug 24, 6:04 AM)30.22 "Hg (Aug 24, 6:04 AM)
Low57 °F (Aug 28, 5:54 AM)42% (Sep 1, 2:54 PM)29.85 "Hg (Aug 25, 5:54 PM)
Average70 °F74%30.02 "Hg
* Reported Aug 20 2:54 AM — Sep 4 2:54 AM, Worcester, Weather by CustomWeather, © 2015

Note: Actual official high and low records may vary slightly from our data, if they occured in-between our weather recording intervals... More about our weather records

Advertising

Worcester weather history for previous 24 hours

 ConditionsComfort  
Time TempWeatherWind HumidityBarometerVisibility
2:54 AM
Fri, Sep 4
70 °FClear.6 mph84%29.97 "Hg9 mi
1:54 AM70 °FClear.7 mph84%29.97 "Hg10 mi
12:54 AM72 °FPassing clouds.3 mph76%29.96 "Hg10 mi
11:54 PM
Thu, Sep 3
73 °FPassing clouds.3 mph76%29.95 "Hg10 mi
10:54 PM74 °FPassing clouds.3 mph74%29.94 "Hg10 mi
9:54 PM76 °FThunderstorms. Mostly cloudy.3 mph69%29.93 "Hg10 mi
8:54 PM78 °FPartly cloudy.No wind64%29.91 "Hg10 mi
7:54 PM79 °FOvercast.No wind62%29.89 "Hg10 mi
6:54 PM80 °FScattered clouds.3 mph58%29.87 "Hg10 mi
5:54 PM83 °FSunny.3 mph48%29.87 "Hg10 mi
4:54 PM84 °FSunny.3 mph45%29.86 "Hg10 mi
3:54 PM85 °FSunny.3 mph45%29.86 "Hg10 mi
2:54 PM85 °FSunny.6 mph42%29.86 "Hg10 mi
1:54 PM83 °FSunny.7 mph48%29.87 "Hg10 mi
12:54 PM84 °FSunny.N/A48%29.88 "Hg10 mi
11:54 AM82 °FSunny.5 mph53%29.89 "Hg10 mi
10:54 AM81 °FSunny.No wind56%29.89 "Hg10 mi
9:54 AM79 °FSunny.9 mph58%29.90 "Hg10 mi
8:54 AM77 °FSunny.7 mph66%29.89 "Hg10 mi
7:54 AM75 °FSunny.6 mph69%29.88 "Hg10 mi
6:54 AM70 °FClear.3 mph79%29.87 "Hg9 mi
5:54 AM69 °FClear.5 mph81%29.86 "Hg10 mi
4:54 AM67 °FClear.7 mph87%29.86 "Hg9 mi
3:54 AM68 °FClear.7 mph84%29.86 "Hg9 mi
Weather by CustomWeather, © 2015

See weather overviewHow to use our weather pages